Current weather by "City, St" or "zip code"  
 

Current Conditions: James A Rhodes Airport, OH

Fair


27.0 F

Last Updated on Apr 23 2021, 6:15 am EDT
Humidity: 100%
Wind Speed: N 0.0 mph
Barometer 30.17 in
Dewpoint: 26.6 F
Visibility: 10.00 mi
Precip: --
Heat Index: NA
Wind Chill: NA
Current conditions at:

James A Rhodes Airport, OH (KI43)

Lat: 38.98136 Lon: 82.57785

Local Radar Image active severe weather and emergency alerts image image weather storm and storm spotter reports image weather observation monitoring service image
Local
Radar
Active
Alerts
Storm Reports Obs
Monitoring

Sign-up For Email & Text Message Weather Alert Notification Services



Advertise Here

Observation History for James A Rhodes Airport, OH


Time Wind
(mph)
Vis
(mi)
Weather Precip (in) Temperature (F) Relative
Humidity
Wind
Chill
(F)
Heat
Index
(F)
Pressure
Air Dwpt altimeter
(in)
sea level
(mb)
Rmks
6:15 am EDT N 0.0 10.00 Fair -- 27.0 26.6 100% NA NA 30.17 M
5:15 am EDT N 0.0 10.00 Fair -- 28.0 28.4 100% NA NA 30.17 M
4:15 am EDT N 0.0 10.00 Fair -- 28.0 28.4 100% NA NA 30.17 M
3:15 am EDT N 0.0 10.00 Fair -- 28.0 28.4 100% NA NA 30.17 M
2:15 am EDT N 0.0 10.00 Fair -- 28.0 28.4 100% NA NA 30.18 M
1:15 am EDT N 0.0 10.00 Fair -- 30.0 30.2 100% NA NA 30.19 M
12:15 am EDT N 0.0 10.00 Fair -- 32.0 30.2 93% NA NA 30.18 M
10:55 pm EDT N 0.0 10.00 Fair -- 32.0 30.2 93% NA NA 30.18 M
10:15 pm EDT N 0.0 10.00 Fair -- 34.0 30.2 87% NA NA 30.18 M
9:15 pm EDT N 0.0 10.00 Fair -- 45.0 23.0 43% NA NA 30.16 M
8:15 pm EDT W 4.6 10.00 Partly Cloudy -- 46.0 23.0 40% 44 NA 30.14 M
8:15 pm EDT W 4.6 10.00 Partly Cloudy -- 46.0 23.0 40% 44 NA 30.14 M
7:15 pm EDT W 11.5 G 16.1 10.00 Partly Cloudy -- 50.0 23.0 35% 46 NA 30.13 M
6:15 pm EDT W 5.8 G 10.4 10.00 Mostly Cloudy -- 48.0 28.4 46% 45 NA 30.13 M
5:15 pm EDT W 10.4 10.00 Mostly Cloudy -- 46.0 30.2 53% 41 NA 30.13 M
4:15 pm EDT W 6.9 G 16.1 10.00 Partly Cloudy -- 46.0 30.2 53% 42 NA 30.15 M
3:15 pm EDT NW 8.1 G 16.1 10.00 Mostly Cloudy -- 46.0 32.0 57% 42 NA 30.16 M
2:15 pm EDT N 9.2 G 25.3 10.00 Light Rain -- 41.0 32.0 70% 35 NA 30.17 M
1:15 pm EDT SW 6.9 10.00 Mostly Cloudy -- 43.0 33.8 71% 39 NA 30.17 M
12:15 pm EDT SW 8.1 10.00 Light Drizzle -- 41.0 33.8 76% 36 NA 30.19 M
11:15 am EDT W 11.5 10.00 Light Rain -- 39.0 33.8 81% 32 NA 30.19 M
10:15 am EDT SW 4.6 10.00 Overcast -- 37.0 33.8 87% 33 NA 30.18 M
9:15 am EDT SW 8.1 10.00 Mostly Cloudy -- 36.0 33.8 93% 30 NA 30.17 M
8:15 am EDT N 0.0 10.00 Partly Cloudy -- 34.0 32.0 93% NA NA 30.16 M

Regional Weather Observation


James A Rhodes Airport, OH (KI43)

Fair
27.0 F

Chillicothe Ross County Airport, OH (KRZT)

Fair
32.0 F

Greater Portsmouth Regional Airport, OH (KPMH)

Fair
NULL F

Lancaster, Fairfield County Airport, OH (KLHQ)

Fair
28.0 F

Rickenbacker Air National Guard Base, OH (KLCK)

Fair
32.0 F

Point Pleasant, Mason County Airport, WV (K3I2)

Fair
28.0 F

Advertise Here


Advertise Here